Shelbyville, IN

1:09 AM EDT on May 01, 2017 (GMT -0400)
Shelbyville Municipal

Weather History for KGEZ - January, 2012

Change the Weather History Date:

Wednesday, January 11, 2012

  Actual Average Record
Temperature  
Mean Temperature 40 °F 28 °F  
Max Temperature 46 °F 36 °F 63 °F (2017)
Min Temperature 33 °F 21 °F 1 °F (1999)
Degree Days  
Heating Degree Days 25 36  
Month to date heating degree days 311 396  
Since 1 July heating degree days 2043 2500  
Cooling Degree Days 0 0  
Month to date cooling degree days 0 0  
Year to date cooling degree days 0 0  
Moisture  
Dew Point 40 °F    
Average Humidity 79    
Maximum Humidity 96    
Minimum Humidity 62    
Precipitation  
Precipitation 0.50 in 0.09 in 0.64 in (2005)
Month to date precipitation 0.51 1.04  
Year to date precipitation 0.51 1.04  
Sea Level Pressure  
Sea Level Pressure 29.49 in    
Wind  
Wind Speed 8 mph (East)    
Max Wind Speed 17 mph    
Max Gust Speed 22 mph    
Visibility 4 miles    
Events Fog , Rain    
T = Trace of Precipitation, MM = Missing Value Source: NWS Daily Summary

Daily Weather History Graph

Daily Weather History Graph

Search for Another Location

Airport or City:

Trip Planner

Search our weather history database for the weather conditions in past years. The results will help you decide how hot, cold, wet, or windy it might be!

Date:

Astronomy

Jan. 11, 2012 Rise Set
Actual Time 8:03 AM EST 5:38 PM EST
Civil Twilight 7:33 AM EST 6:08 PM EST
Nautical Twilight 7:00 AM EST 6:41 PM EST
Astronomical Twilight 6:27 AM EST 7:14 PM EST
Moon 8:35 PM EST (1/11) 9:15 AM EST (1/11)
Length of Visible Light 10h 35m
Length of Day
9h 35m
Waning Gibbous, 93% of the Moon is Illuminated
Jan 11
Waning Gibbous
Jan 16
Last Quarter
Jan 23
New
Jan 30
First Quarter
Feb 7
Full

Hourly Weather History & Observations

Time (EST) Temp. Windchill Dew Point Humidity Pressure Visibility Wind Dir Wind Speed Gust Speed Precip Events Conditions
12:53 AM 37.9 °F 33.5 °F 28.0 °F 68% 29.83 in 10.0 mi ESE 5.8 mph - N/A   Clear
1:53 AM 34.0 °F 28.0 °F 27.0 °F 75% 29.80 in 10.0 mi ENE 6.9 mph - N/A   Clear
2:53 AM 34.0 °F 26.6 °F 28.0 °F 79% 29.77 in 10.0 mi ENE 9.2 mph - N/A   Clear
3:53 AM 39.0 °F 32.8 °F 30.0 °F 70% 29.73 in 10.0 mi ESE 9.2 mph - N/A   Overcast
4:53 AM 42.1 °F 35.7 °F 30.0 °F 62% 29.69 in 10.0 mi ESE 11.5 mph - N/A   Overcast
5:53 AM 41.0 °F 35.2 °F 32.0 °F 70% 29.67 in 10.0 mi East 9.2 mph - 0.00 in   Overcast
6:53 AM 41.0 °F 34.7 °F 33.1 °F 73% 29.67 in 10.0 mi East 10.4 mph - 0.00 in Rain Light Rain
7:53 AM 39.9 °F 33.9 °F 35.1 °F 83% 29.66 in 6.0 mi East 9.2 mph - 0.10 in Rain Rain
8:53 AM 41.0 °F 33.9 °F 36.0 °F 82% 29.63 in 8.0 mi East 12.7 mph - 0.05 in Rain Light Rain
9:53 AM 42.1 °F 34.2 °F 37.0 °F 82% 29.60 in 8.0 mi East 16.1 mph - 0.06 in Rain Light Rain
10:53 AM 43.0 °F 36.8 °F 39.0 °F 86% 29.57 in 4.0 mi East 11.5 mph - 0.04 in Rain Rain
11:09 AM 42.8 °F 36.2 °F 39.2 °F 87% 29.54 in 3.0 mi East 12.7 mph - 0.02 in Rain Light Rain
11:43 AM 44.6 °F 37.4 °F 41.0 °F 87% 29.51 in 4.0 mi East 16.1 mph 21.9 mph 0.03 in Rain Light Rain
11:53 AM 45.0 °F 38.2 °F 42.1 °F 90% 29.51 in 6.0 mi East 15.0 mph - 0.04 in Rain Light Rain
12:21 PM 46.4 °F 40.4 °F 42.8 °F 87% 29.47 in 10.0 mi East 13.8 mph - 0.00 in Rain Light Rain
12:44 PM 46.4 °F 41.1 °F 42.8 °F 87% 29.46 in 2.0 mi East 11.5 mph - 0.01 in Rain Light Rain
12:53 PM 46.0 °F 40.6 °F 43.0 °F 89% 29.47 in 1.5 mi East 11.5 mph - 0.01 in Rain Light Rain
1:42 PM 46.4 °F 41.5 °F 44.6 °F 93% 29.44 in 2.0 mi East 10.4 mph - 0.03 in Rain Light Rain
1:53 PM 46.0 °F 41.9 °F 44.1 °F 93% 29.44 in 1.8 mi ESE 8.1 mph - 0.03 in Rain Light Rain
2:02 PM 46.4 °F 44.3 °F 44.6 °F 93% 29.43 in 1.5 mi ESE 4.6 mph - 0.01 in Rain Light Rain
2:30 PM 46.4 °F 44.3 °F 44.6 °F 93% 29.42 in 2.5 mi ESE 4.6 mph - 0.04 in Rain Light Rain
2:41 PM 46.4 °F 43.5 °F 44.6 °F 93% 29.41 in 3.0 mi ESE 5.8 mph - 0.04 in Rain Light Rain
2:53 PM 46.0 °F 41.0 °F 43.0 °F 89% 29.42 in 4.0 mi ESE 10.4 mph - 0.05 in Rain Light Rain
3:05 PM 46.4 °F 42.9 °F 42.8 °F 87% 29.41 in 3.0 mi ESE 6.9 mph - 0.00 in Rain Light Rain
3:29 PM 46.4 °F - 42.8 °F 87% 29.41 in 2.5 mi Calm Calm - 0.01 in Rain Light Rain
3:37 PM 46.4 °F - 42.8 °F 87% 29.41 in 3.0 mi Calm Calm - 0.01 in   Overcast
3:49 PM 46.4 °F 45.2 °F 42.8 °F 87% 29.40 in 2.5 mi ENE 3.5 mph - 0.01 in   Overcast
3:53 PM 46.0 °F - 43.0 °F 89% 29.41 in 2.5 mi Calm Calm - 0.01 in   Overcast
4:05 PM 46.4 °F - 42.8 °F 87% 29.41 in 4.0 mi Calm Calm - N/A   Overcast
4:19 PM 46.4 °F 45.2 °F 42.8 °F 87% 29.41 in 1.8 mi ENE 3.5 mph - 0.01 in Rain Light Rain
4:36 PM 46.4 °F 45.2 °F 42.8 °F 87% 29.41 in 3.0 mi NE 3.5 mph - 0.01 in Rain Light Rain
4:53 PM 46.0 °F - 43.0 °F 89% 29.41 in 5.0 mi Calm Calm - 0.01 in   Overcast
5:16 PM 44.6 °F 42.2 °F 42.8 °F 93% 29.40 in 2.5 mi North 4.6 mph - 0.00 in   Overcast
5:27 PM 44.6 °F - 42.8 °F 93% 29.40 in 3.0 mi Calm Calm - 0.00 in   Overcast
6:06 PM 44.6 °F - 42.8 °F 93% 29.41 in 2.5 mi Calm Calm - 0.01 in Rain Light Rain
6:39 PM 44.6 °F - 42.8 °F 93% 29.41 in 1.0 mi Calm Calm - 0.04 in Rain Light Rain
6:53 PM 45.0 °F - 42.1 °F 90% 29.42 in 0.5 mi Calm Calm - 0.05 in Fog , Rain Light Rain
7:40 PM 44.6 °F - 42.8 °F 93% 29.41 in 1.2 mi Calm Calm - 0.01 in Rain Light Rain
7:53 PM 44.1 °F 42.5 °F 42.1 °F 93% 29.42 in 1.5 mi WNW 3.5 mph - 0.01 in Rain Light Rain
8:17 PM 44.6 °F 41.4 °F 42.8 °F 93% 29.41 in 2.0 mi NW 5.8 mph - 0.01 in Rain Light Rain
8:45 PM 42.8 °F 38.0 °F 41.0 °F 93% 29.41 in 4.0 mi NNW 8.1 mph - 0.03 in Rain Light Rain
8:53 PM 43.0 °F 38.8 °F 41.0 °F 93% 29.42 in 4.0 mi NNW 6.9 mph - 0.03 in Rain Light Rain
9:53 PM 42.1 °F 37.7 °F 39.9 °F 92% 29.43 in 4.0 mi WNW 6.9 mph - 0.01 in   Overcast
10:53 PM 42.1 °F 37.7 °F 39.0 °F 89% 29.43 in 5.0 mi WNW 6.9 mph - N/A   Overcast
11:53 PM 42.1 °F 37.1 °F 39.0 °F 89% 29.43 in 6.0 mi WNW 8.1 mph - 0.00 in   Overcast